Location: Unspecified
(0.0000°N, 0.0000°E)
Time: 02:22:15
(UTC+00:00)

Orbcomm G2 (FM04) - Visible Passes

Search period start: 16 May 2026 00:00
Search period end: 26 May 2026 00:00
Orbit: 744 x 802 km, 108.0° (Epoch: 15 May)

Date Brightness Start Highest point End Pass type
(mag) Time Alt. Az. Time Alt. Az. Time Alt. Az.
16 May 9.9 03:58:30 10° N 04:00:10 18° NNW 04:00:10 18° NNW visible
17 May 9.9 03:23:22 10° NNE 03:25:14 23° NNE 03:25:14 23° NNE visible
18 May 10.7 02:49:28 10° NE 02:50:19 14° NE 02:50:19 14° NE visible
18 May 9.9 04:28:57 10° NNW 04:30:40 15° NW 04:30:40 15° NW visible
19 May 9.3 03:52:49 10° N 03:55:45 31° NNW 03:55:45 31° NNW visible
20 May 9.7 03:18:16 10° NNE 03:20:50 30° NE 03:20:50 30° NE visible
21 May 10.8 02:45:05 10° ENE 02:45:56 14° ENE 02:45:56 14° ENE visible
21 May 9.3 04:22:40 10° NNW 04:26:18 25° WNW 04:26:18 25° WNW visible
22 May 8.5 03:47:26 10° NNE 03:51:23 52° N 03:51:23 52° N visible
23 May 9.7 03:13:28 10° NE 03:16:29 30° ENE 03:16:29 30° ENE visible
23 May 9.8 04:53:15 10° NW 04:56:03 15° WNW 04:56:50 14° WNW visible
24 May 11.0 02:41:19 10° E 02:41:34 11° E 02:41:34 11° E visible
24 May 8.5 04:16:56 10° N 04:21:46 41° WNW 04:21:56 41° WNW visible
25 May 8.3 03:42:18 10° NNE 03:47:01 66° ENE 03:47:01 66° ENE visible
